Osage River (Missouri), Taberville (06918250)

StateMissouriLatestLow (1240 cfs)
RiverOsage RiverRatingObservedEstimated
Updated2020-08-06 9:45 (1 hour ago)Flood - The river is flooding. Obstacles can be treacherous or deadly. The river should be avoided at this stage for casual trips and definitely for the inexperienced. Trips should be attempted only with protective gear and equipment.Flood(none)38403
Discharge1240 cfs (median: 281 cfs)High - The river is high and potentially dangerous, especially for the young and / or inexperienced. Normal stream obstacles are sometimes difficult to navigate. Extended distances can be attempted, but canoe travel may not be advisable.High(none)7197
Height12.24 feetGood - Conditions are ideal for a canoe or kayak. Boats typically will drag on fewer than one-quarter of riffles, if at all, and portages are unnecessary or rare. Normal float lengths can be attempted without a problem.Good(none)4305
TrendFalling (falling over 24 hours)Low - River is low but can still be floated. Some riffles are okay but most come with significant dragging and might need a portage. Float lengths should be reduced to accommodate low flow, dragging, and portages.Low(none)1188
USGSExternal icon USGS Site (External icon Google Maps)Poor - River is too low to float comfortably. Most or all riffles will drag or must be portaged and some obstacles (such as slick shelf rock) cause undue problems. Avoid the river at this stage for casual paddling trips.Poor(none)50

Trending Data

Plot Image

Trips for Osage River (Missouri), Taberville (06918250)

DateStartEndDistanceConditionDischargeHeightFishingDetails

A total of 0 rows are displayed.

Condition Descriptions

Fishing Conditions

Fish Species

Notes

Classic Trip List

The classic River Trips application is still available for use. It is updated with the new system using a data retrofit. It is no longer maintained. The original River Trips application is no longer updated (as of 1 Dec 2016) but can be checked for errors or for the condition of the data before it was converted to the new system.

Gauge Data Table

ObservationHeightDischargeMaximum
Discharge
Minimum
Discharge
Mean
Discharge
P05P10P20P25P50
(Median)
P75P80P90P95
2020-08-06 09:45 12.24 1240 19600 (2019) 50 (2011) 3800 50 50 50 281 6660 12600 19600
2020-08-06 08:45 12.27 1260 19600 (2019) 50 (2011) 3800 50 50 50 281 6660 12600 19600
2020-08-06 07:45 12.30 1280 19600 (2019) 50 (2011) 3800 50 50 50 281 6660 12600 19600
2020-08-06 06:45 12.30 1280 19600 (2019) 50 (2011) 3800 50 50 50 281 6660 12600 19600
2020-08-06 05:45 12.28 1270 19600 (2019) 50 (2011) 3800 50 50 50 281 6660 12600 19600
2020-08-06 04:45 12.26 1250 19600 (2019) 50 (2011) 3800 50 50 50 281 6660 12600 19600
2020-08-06 03:45 12.24 1240 19600 (2019) 50 (2011) 3800 50 50 50 281 6660 12600 19600
2020-08-06 02:45 12.21 1210 19600 (2019) 50 (2011) 3800 50 50 50 281 6660 12600 19600
2020-08-06 01:45 12.18 1190 19600 (2019) 50 (2011) 3800 50 50 50 281 6660 12600 19600
2020-08-06 00:45 12.17 1180 19600 (2019) 50 (2011) 3800 50 50 50 281 6660 12600 19600
2020-08-05 23:45 12.21 1210 18900 (2019) 50 (2011) 3510 50 50 50 280 5960 11500 18900
2020-08-05 22:45 12.26 1250 18900 (2019) 50 (2011) 3510 50 50 50 280 5960 11500 18900
2020-08-05 21:45 12.33 1310 18900 (2019) 50 (2011) 3510 50 50 50 280 5960 11500 18900
2020-08-05 20:45 12.39 1350 18900 (2019) 50 (2011) 3510 50 50 50 280 5960 11500 18900
2020-08-05 19:45 12.47 1420 18900 (2019) 50 (2011) 3510 50 50 50 280 5960 11500 18900
2020-08-05 18:45 12.48 1420 18900 (2019) 50 (2011) 3510 50 50 50 280 5960 11500 18900
2020-08-05 17:45 12.50 1440 18900 (2019) 50 (2011) 3510 50 50 50 280 5960 11500 18900
2020-08-05 16:45 12.50 1440 18900 (2019) 50 (2011) 3510 50 50 50 280 5960 11500 18900
2020-08-05 15:45 12.50 1440 18900 (2019) 50 (2011) 3510 50 50 50 280 5960 11500 18900
2020-08-05 14:45 12.51 1450 18900 (2019) 50 (2011) 3510 50 50 50 280 5960 11500 18900
2020-08-05 13:45 12.54 1470 18900 (2019) 50 (2011) 3510 50 50 50 280 5960 11500 18900
2020-08-05 12:45 12.55 1480 18900 (2019) 50 (2011) 3510 50 50 50 280 5960 11500 18900
2020-08-05 11:45 12.58 1510 18900 (2019) 50 (2011) 3510 50 50 50 280 5960 11500 18900
2020-08-05 10:45 12.60 1520 18900 (2019) 50 (2011) 3510 50 50 50 280 5960 11500 18900
2020-08-05 09:45 12.63 1550 18900 (2019) 50 (2011) 3510 50 50 50 280 5960 11500 18900
2020-08-05 08:45 12.67 1580 18900 (2019) 50 (2011) 3510 50 50 50 280 5960 11500 18900
2020-08-05 07:45 12.68 1590 18900 (2019) 50 (2011) 3510 50 50 50 280 5960 11500 18900
2020-08-05 06:45 12.67 1580 18900 (2019) 50 (2011) 3510 50 50 50 280 5960 11500 18900
2020-08-05 05:45 12.66 1580 18900 (2019) 50 (2011) 3510 50 50 50 280 5960 11500 18900
2020-08-05 04:45 12.64 1560 18900 (2019) 50 (2011) 3510 50 50 50 280 5960 11500 18900
2020-08-05 03:45 12.63 1550 18900 (2019) 50 (2011) 3510 50 50 50 280 5960 11500 18900
2020-08-05 02:45 12.61 1530 18900 (2019) 50 (2011) 3510 50 50 50 280 5960 11500 18900
2020-08-05 01:45 12.60 1520 18900 (2019) 50 (2011) 3510 50 50 50 280 5960 11500 18900
2020-08-05 00:45 12.59 1520 18900 (2019) 50 (2011) 3510 50 50 50 280 5960 11500 18900
2020-08-04 23:45 12.61 1530 16700 (2019) 50 (2011) 2830 50 50 50 407 3830 7220 16700
2020-08-04 22:45 12.66 1580 16700 (2019) 50 (2011) 2830 50 50 50 407 3830 7220 16700
2020-08-04 21:45 12.71 1620 16700 (2019) 50 (2011) 2830 50 50 50 407 3830 7220 16700
2020-08-04 20:45 12.77 1670 16700 (2019) 50 (2011) 2830 50 50 50 407 3830 7220 16700
2020-08-04 19:45 12.82 1720 16700 (2019) 50 (2011) 2830 50 50 50 407 3830 7220 16700
2020-08-04 18:45 12.87 1770 16700 (2019) 50 (2011) 2830 50 50 50 407 3830 7220 16700
2020-08-04 17:45 12.89 1780 16700 (2019) 50 (2011) 2830 50 50 50 407 3830 7220 16700
2020-08-04 16:45 12.92 1810 16700 (2019) 50 (2011) 2830 50 50 50 407 3830 7220 16700
2020-08-04 15:45 12.92 1810 16700 (2019) 50 (2011) 2830 50 50 50 407 3830 7220 16700
2020-08-04 14:45 12.93 1820 16700 (2019) 50 (2011) 2830 50 50 50 407 3830 7220 16700
2020-08-04 13:45 12.90 1790 16700 (2019) 50 (2011) 2830 50 50 50 407 3830 7220 16700
2020-08-04 12:45 12.90 1790 16700 (2019) 50 (2011) 2830 50 50 50 407 3830 7220 16700
2020-08-04 11:45 12.91 1800 16700 (2019) 50 (2011) 2830 50 50 50 407 3830 7220 16700
2020-08-04 10:45 12.95 1840 16700 (2019) 50 (2011) 2830 50 50 50 407 3830 7220 16700
2020-08-04 09:45 12.96 1850 16700 (2019) 50 (2011) 2830 50 50 50 407 3830 7220 16700
2020-08-04 08:45 12.96 1850 16700 (2019) 50 (2011) 2830 50 50 50 407 3830 7220 16700
2020-08-04 07:45 12.96 1850 16700 (2019) 50 (2011) 2830 50 50 50 407 3830 7220 16700
2020-08-04 06:45 12.95 1840 16700 (2019) 50 (2011) 2830 50 50 50 407 3830 7220 16700
2020-08-04 05:45 12.94 1830 16700 (2019) 50 (2011) 2830 50 50 50 407 3830 7220 16700
2020-08-04 04:45 12.95 1840 16700 (2019) 50 (2011) 2830 50 50 50 407 3830 7220 16700
2020-08-04 03:45 12.95 1840 16700 (2019) 50 (2011) 2830 50 50 50 407 3830 7220 16700
2020-08-04 02:45 12.95 1840 16700 (2019) 50 (2011) 2830 50 50 50 407 3830 7220 16700
2020-08-04 01:45 12.94 1830 16700 (2019) 50 (2011) 2830 50 50 50 407 3830 7220 16700
2020-08-04 00:45 12.92 1810 16700 (2019) 50 (2011) 2830 50 50 50 407 3830 7220 16700
2020-08-03 23:45 12.93 1820 13800 (2019) 50 (2011) 2530 50 50 50 294 3980 7190 13800
2020-08-03 22:45 12.94 1830 13800 (2019) 50 (2011) 2530 50 50 50 294 3980 7190 13800
2020-08-03 21:45 12.99 1880 13800 (2019) 50 (2011) 2530 50 50 50 294 3980 7190 13800
2020-08-03 20:45 13.05 1940 13800 (2019) 50 (2011) 2530 50 50 50 294 3980 7190 13800
2020-08-03 19:45 13.10 1990 13800 (2019) 50 (2011) 2530 50 50 50 294 3980 7190 13800
2020-08-03 18:45 13.14 2030 13800 (2019) 50 (2011) 2530 50 50 50 294 3980 7190 13800
2020-08-03 17:45 13.16 2050 13800 (2019) 50 (2011) 2530 50 50 50 294 3980 7190 13800
2020-08-03 16:45 13.14 2030 13800 (2019) 50 (2011) 2530 50 50 50 294 3980 7190 13800
2020-08-03 15:45 13.16 2050 13800 (2019) 50 (2011) 2530 50 50 50 294 3980 7190 13800
2020-08-03 14:45 13.20 2090 13800 (2019) 50 (2011) 2530 50 50 50 294 3980 7190 13800
2020-08-03 13:45 13.29 2190 13800 (2019) 50 (2011) 2530 50 50 50 294 3980 7190 13800
2020-08-03 12:45 13.30 2200 13800 (2019) 50 (2011) 2530 50 50 50 294 3980 7190 13800
2020-08-03 11:45 13.34 2240 13800 (2019) 50 (2011) 2530 50 50 50 294 3980 7190 13800
2020-08-03 10:45 13.40 2310 13800 (2019) 50 (2011) 2530 50 50 50 294 3980 7190 13800
2020-08-03 09:45 13.39 2300 13800 (2019) 50 (2011) 2530 50 50 50 294 3980 7190 13800
2020-08-03 08:45 13.46 2380 13800 (2019) 50 (2011) 2530 50 50 50 294 3980 7190 13800
2020-08-03 07:45 13.49 2410 13800 (2019) 50 (2011) 2530 50 50 50 294 3980 7190 13800
2020-08-03 06:45 13.53 2460 13800 (2019) 50 (2011) 2530 50 50 50 294 3980 7190 13800
2020-08-03 05:45 13.57 2500 13800 (2019) 50 (2011) 2530 50 50 50 294 3980 7190 13800
2020-08-03 04:45 13.61 2550 13800 (2019) 50 (2011) 2530 50 50 50 294 3980 7190 13800
2020-08-03 03:45 13.65 2600 13800 (2019) 50 (2011) 2530 50 50 50 294 3980 7190 13800
2020-08-03 02:45 13.69 2650 13800 (2019) 50 (2011) 2530 50 50 50 294 3980 7190 13800
2020-08-03 01:45 13.74 2720 13800 (2019) 50 (2011) 2530 50 50 50 294 3980 7190 13800
2020-08-03 00:45 13.79 2780 13800 (2019) 50 (2011) 2530 50 50 50 294 3980 7190 13800
2020-08-02 23:45 13.85 2870 8320 (2013) 50 (2011) 1990 50 50 50 335 4230 7720 8320
2020-08-02 22:45 13.90 2940 8320 (2013) 50 (2011) 1990 50 50 50 335 4230 7720 8320
2020-08-02 21:45 13.96 3020 8320 (2013) 50 (2011) 1990 50 50 50 335 4230 7720 8320
2020-08-02 20:45 14.03 3120 8320 (2013) 50 (2011) 1990 50 50 50 335 4230 7720 8320
2020-08-02 19:45 14.09 3210 8320 (2013) 50 (2011) 1990 50 50 50 335 4230 7720 8320
2020-08-02 18:45 14.12 3260 8320 (2013) 50 (2011) 1990 50 50 50 335 4230 7720 8320
2020-08-02 17:45 14.19 3360 8320 (2013) 50 (2011) 1990 50 50 50 335 4230 7720 8320
2020-08-02 16:45 14.24 3440 8320 (2013) 50 (2011) 1990 50 50 50 335 4230 7720 8320
2020-08-02 15:45 14.33 3580 8320 (2013) 50 (2011) 1990 50 50 50 335 4230 7720 8320
2020-08-02 14:45 14.39 3680 8320 (2013) 50 (2011) 1990 50 50 50 335 4230 7720 8320
2020-08-02 13:45 14.46 3780 8320 (2013) 50 (2011) 1990 50 50 50 335 4230 7720 8320
2020-08-02 12:45 14.52 3870 8320 (2013) 50 (2011) 1990 50 50 50 335 4230 7720 8320
2020-08-02 11:45 14.53 3890 8320 (2013) 50 (2011) 1990 50 50 50 335 4230 7720 8320
2020-08-02 10:45 14.60 3990 8320 (2013) 50 (2011) 1990 50 50 50 335 4230 7720 8320
2020-08-02 09:45 14.67 4100 8320 (2013) 50 (2011) 1990 50 50 50 335 4230 7720 8320
2020-08-02 08:45 14.69 4130 8320 (2013) 50 (2011) 1990 50 50 50 335 4230 7720 8320
2020-08-02 07:45 14.77 4260 8320 (2013) 50 (2011) 1990 50 50 50 335 4230 7720 8320
2020-08-02 06:45 14.81 4320 8320 (2013) 50 (2011) 1990 50 50 50 335 4230 7720 8320
2020-08-02 05:45 14.84 4370 8320 (2013) 50 (2011) 1990 50 50 50 335 4230 7720 8320
2020-08-02 04:45 14.85 4390 8320 (2013) 50 (2011) 1990 50 50 50 335 4230 7720 8320
2020-08-02 03:45 14.87 4420 8320 (2013) 50 (2011) 1990 50 50 50 335 4230 7720 8320
2020-08-02 02:45 14.88 4440 8320 (2013) 50 (2011) 1990 50 50 50 335 4230 7720 8320
2020-08-02 01:45 14.87 4420 8320 (2013) 50 (2011) 1990 50 50 50 335 4230 7720 8320
2020-08-02 00:45 14.88 4440 8320 (2013) 50 (2011) 1990 50 50 50 335 4230 7720 8320
2020-08-01 23:45 14.85 4390 8050 (2013) 50 (2012) 1950 50 50 61 457 3930 6560 8050
2020-08-01 22:45 14.85 4390 8050 (2013) 50 (2012) 1950 50 50 61 457 3930 6560 8050
2020-08-01 21:45 14.83 4350 8050 (2013) 50 (2012) 1950 50 50 61 457 3930 6560 8050
2020-08-01 20:45 14.81 4320 8050 (2013) 50 (2012) 1950 50 50 61 457 3930 6560 8050
2020-08-01 19:45 14.76 4240 8050 (2013) 50 (2012) 1950 50 50 61 457 3930 6560 8050
2020-08-01 18:45 14.73 4190 8050 (2013) 50 (2012) 1950 50 50 61 457 3930 6560 8050
2020-08-01 17:45 14.66 4080 8050 (2013) 50 (2012) 1950 50 50 61 457 3930 6560 8050
2020-08-01 16:45 14.61 4010 8050 (2013) 50 (2012) 1950 50 50 61 457 3930 6560 8050
2020-08-01 15:45 14.55 3920 8050 (2013) 50 (2012) 1950 50 50 61 457 3930 6560 8050
2020-08-01 14:45 14.49 3830 8050 (2013) 50 (2012) 1950 50 50 61 457 3930 6560 8050
2020-08-01 13:45 14.39 3680 8050 (2013) 50 (2012) 1950 50 50 61 457 3930 6560 8050
2020-08-01 12:45 14.32 3570 8050 (2013) 50 (2012) 1950 50 50 61 457 3930 6560 8050
2020-08-01 11:45 14.21 3390 8050 (2013) 50 (2012) 1950 50 50 61 457 3930 6560 8050
2020-08-01 10:45 14.12 3260 8050 (2013) 50 (2012) 1950 50 50 61 457 3930 6560 8050
2020-08-01 09:45 14.02 3110 8050 (2013) 50 (2012) 1950 50 50 61 457 3930 6560 8050
2020-08-01 08:45 13.90 2940 8050 (2013) 50 (2012) 1950 50 50 61 457 3930 6560 8050
2020-08-01 07:45 13.78 2770 8050 (2013) 50 (2012) 1950 50 50 61 457 3930 6560 8050
2020-08-01 06:45 13.66 2610 8050 (2013) 50 (2012) 1950 50 50 61 457 3930 6560 8050
2020-08-01 05:45 13.54 2470 8050 (2013) 50 (2012) 1950 50 50 61 457 3930 6560 8050
2020-08-01 04:45 13.44 2350 8050 (2013) 50 (2012) 1950 50 50 61 457 3930 6560 8050
2020-08-01 03:45 13.32 2220 8050 (2013) 50 (2012) 1950 50 50 61 457 3930 6560 8050
2020-08-01 02:45 13.21 2100 8050 (2013) 50 (2012) 1950 50 50 61 457 3930 6560 8050
2020-08-01 01:45 13.11 2000 8050 (2013) 50 (2012) 1950 50 50 61 457 3930 6560 8050
2020-08-01 00:45 13.02 1910 8050 (2013) 50 (2012) 1950 50 50 61 457 3930 6560 8050
2020-07-31 23:45 12.95 1840 6740 (2019) 50 (2011) 1720 50 50 50 781 3310 4700 6740
2020-07-31 22:45 12.92 1810 6740 (2019) 50 (2011) 1720 50 50 50 781 3310 4700 6740
2020-07-31 21:45 12.90 1790 6740 (2019) 50 (2011) 1720 50 50 50 781 3310 4700 6740
2020-07-31 20:45 12.89 1780 6740 (2019) 50 (2011) 1720 50 50 50 781 3310 4700 6740
2020-07-31 19:45 12.89 1780 6740 (2019) 50 (2011) 1720 50 50 50 781 3310 4700 6740
2020-07-31 18:45 12.91 1800 6740 (2019) 50 (2011) 1720 50 50 50 781 3310 4700 6740
2020-07-31 17:45 12.93 1820 6740 (2019) 50 (2011) 1720 50 50 50 781 3310 4700 6740
2020-07-31 16:45 12.94 1830 6740 (2019) 50 (2011) 1720 50 50 50 781 3310 4700 6740
2020-07-31 15:45 13.00 1890 6740 (2019) 50 (2011) 1720 50 50 50 781 3310 4700 6740
2020-07-31 14:45 13.05 1940 6740 (2019) 50 (2011) 1720 50 50 50 781 3310 4700 6740
2020-07-31 13:45 13.04 1930 6740 (2019) 50 (2011) 1720 50 50 50 781 3310 4700 6740
2020-07-31 12:45 13.10 1990 6740 (2019) 50 (2011) 1720 50 50 50 781 3310 4700 6740
2020-07-31 11:45 13.05 1940 6740 (2019) 50 (2011) 1720 50 50 50 781 3310 4700 6740
2020-07-31 10:45 12.57 1500 6740 (2019) 50 (2011) 1720 50 50 50 781 3310 4700 6740
2020-07-31 09:45 11.77 914 6740 (2019) 50 (2011) 1720 50 50 50 781 3310 4700 6740
2020-07-31 08:45 10.80 444 6740 (2019) 50 (2011) 1720 50 50 50 781 3310 4700 6740
2020-07-31 07:45 10.24 272 6740 (2019) 50 (2011) 1720 50 50 50 781 3310 4700 6740
2020-07-31 06:45 9.92 197 6740 (2019) 50 (2011) 1720 50 50 50 781 3310 4700 6740
2020-07-31 05:45 9.84 182 6740 (2019) 50 (2011) 1720 50 50 50 781 3310 4700 6740
2020-07-31 04:45 9.82 178 6740 (2019) 50 (2011) 1720 50 50 50 781 3310 4700 6740
2020-07-31 03:45 9.83 180 6740 (2019) 50 (2011) 1720 50 50 50 781 3310 4700 6740
2020-07-31 02:45 9.86 186 6740 (2019) 50 (2011) 1720 50 50 50 781 3310 4700 6740
2020-07-31 01:45 9.88 190 6740 (2019) 50 (2011) 1720 50 50 50 781 3310 4700 6740
2020-07-31 00:45 9.90 193 6740 (2019) 50 (2011) 1720 50 50 50 781 3310 4700 6740
2020-07-30 23:45 9.93 199 6920 (2019) 50 (2012) 1750 50 50 59 247 3840 6160 6920
2020-07-30 22:45 9.99 211 6920 (2019) 50 (2012) 1750 50 50 59 247 3840 6160 6920
2020-07-30 21:45 10.05 225 6920 (2019) 50 (2012) 1750 50 50 59 247 3840 6160 6920
2020-07-30 20:45 10.12 241 6920 (2019) 50 (2012) 1750 50 50 59 247 3840 6160 6920
2020-07-30 19:45 10.18 256 6920 (2019) 50 (2012) 1750 50 50 59 247 3840 6160 6920
2020-07-30 18:45 10.21 264 6920 (2019) 50 (2012) 1750 50 50 59 247 3840 6160 6920
2020-07-30 17:45 10.21 264 6920 (2019) 50 (2012) 1750 50 50 59 247 3840 6160 6920
2020-07-30 16:45 10.28 282 6920 (2019) 50 (2012) 1750 50 50 59 247 3840 6160 6920
2020-07-30 15:45 10.31 290 6920 (2019) 50 (2012) 1750 50 50 59 247 3840 6160 6920
2020-07-30 14:45 10.33 296 6920 (2019) 50 (2012) 1750 50 50 59 247 3840 6160 6920
2020-07-30 13:45 10.34 299 6920 (2019) 50 (2012) 1750 50 50 59 247 3840 6160 6920
2020-07-30 12:45 10.34 299 6920 (2019) 50 (2012) 1750 50 50 59 247 3840 6160 6920
2020-07-30 11:45 10.34 299 6920 (2019) 50 (2012) 1750 50 50 59 247 3840 6160 6920
2020-07-30 10:45 10.31 290 6920 (2019) 50 (2012) 1750 50 50 59 247 3840 6160 6920
2020-07-30 09:45 10.30 288 6920 (2019) 50 (2012) 1750 50 50 59 247 3840 6160 6920
2020-07-30 08:45 10.27 280 6920 (2019) 50 (2012) 1750 50 50 59 247 3840 6160 6920
2020-07-30 07:45 10.23 269 6920 (2019) 50 (2012) 1750 50 50 59 247 3840 6160 6920
2020-07-30 06:45 10.17 254 6920 (2019) 50 (2012) 1750 50 50 59 247 3840 6160 6920
2020-07-30 05:45 10.13 244 6920 (2019) 50 (2012) 1750 50 50 59 247 3840 6160 6920
2020-07-30 04:45 10.10 236 6920 (2019) 50 (2012) 1750 50 50 59 247 3840 6160 6920
2020-07-30 03:45 10.07 229 6920 (2019) 50 (2012) 1750 50 50 59 247 3840 6160 6920
2020-07-30 02:45 10.04 222 6920 (2019) 50 (2012) 1750 50 50 59 247 3840 6160 6920
2020-07-30 01:45 9.97 207 6920 (2019) 50 (2012) 1750 50 50 59 247 3840 6160 6920
2020-07-30 00:45 9.89 192 6920 (2019) 50 (2012) 1750 50 50 59 247 3840 6160 6920
2020-07-29 23:45 9.81 176 8700 (2017) 50 (2012) 2180 50 50 73 191 4960 7650 8700
2020-07-29 22:45 9.77 169 8700 (2017) 50 (2012) 2180 50 50 73 191 4960 7650 8700
2020-07-29 21:45 9.76 167 8700 (2017) 50 (2012) 2180 50 50 73 191 4960 7650 8700
2020-07-29 20:45 9.73 162 8700 (2017) 50 (2012) 2180 50 50 73 191 4960 7650 8700
2020-07-29 19:45 9.71 159 8700 (2017) 50 (2012) 2180 50 50 73 191 4960 7650 8700
2020-07-29 18:45 9.62 144 8700 (2017) 50 (2012) 2180 50 50 73 191 4960 7650 8700
2020-07-29 17:45 9.60 141 8700 (2017) 50 (2012) 2180 50 50 73 191 4960 7650 8700
2020-07-29 16:45 9.51 127 8700 (2017) 50 (2012) 2180 50 50 73 191 4960 7650 8700
2020-07-29 15:45 9.49 125 8700 (2017) 50 (2012) 2180 50 50 73 191 4960 7650 8700
2020-07-29 14:45 9.46 120 8700 (2017) 50 (2012) 2180 50 50 73 191 4960 7650 8700
2020-07-29 13:45 9.39 111 8700 (2017) 50 (2012) 2180 50 50 73 191 4960 7650 8700
2020-07-29 12:45 9.37 108 8700 (2017) 50 (2012) 2180 50 50 73 191 4960 7650 8700
2020-07-29 11:45 9.38 110 8700 (2017) 50 (2012) 2180 50 50 73 191 4960 7650 8700
2020-07-29 10:45 9.34 104 8700 (2017) 50 (2012) 2180 50 50 73 191 4960 7650 8700
2020-07-29 09:45 9.28 97 8700 (2017) 50 (2012) 2180 50 50 73 191 4960 7650 8700
2020-07-29 08:45 9.28 97 8700 (2017) 50 (2012) 2180 50 50 73 191 4960 7650 8700
2020-07-29 07:45 9.20 89 8700 (2017) 50 (2012) 2180 50 50 73 191 4960 7650 8700
2020-07-29 06:45 9.18 87 8700 (2017) 50 (2012) 2180 50 50 73 191 4960 7650 8700
2020-07-29 05:45 9.11 81 8700 (2017) 50 (2012) 2180 50 50 73 191 4960 7650 8700
2020-07-29 04:45 9.07 77 8700 (2017) 50 (2012) 2180 50 50 73 191 4960 7650 8700
2020-07-29 03:45 9.04 75 8700 (2017) 50 (2012) 2180 50 50 73 191 4960 7650 8700
2020-07-29 02:45 9.04 75 8700 (2017) 50 (2012) 2180 50 50 73 191 4960 7650 8700
2020-07-29 01:45 9.02 74 8700 (2017) 50 (2012) 2180 50 50 73 191 4960 7650 8700
2020-07-29 00:45 8.96 72 8700 (2017) 50 (2012) 2180 50 50 73 191 4960 7650 8700
2020-07-28 23:45 8.92 70 8040 (2019) 50 (2011) 1740 50 50 50 374 3150 3710 8040
2020-07-28 22:45 8.89 69 8040 (2019) 50 (2011) 1740 50 50 50 374 3150 3710 8040
2020-07-28 21:45 8.93 70 8040 (2019) 50 (2011) 1740 50 50 50 374 3150 3710 8040
2020-07-28 20:45 8.97 72 8040 (2019) 50 (2011) 1740 50 50 50 374 3150 3710 8040
2020-07-28 19:45 9.01 74 8040 (2019) 50 (2011) 1740 50 50 50 374 3150 3710 8040
2020-07-28 18:45 9.04 75 8040 (2019) 50 (2011) 1740 50 50 50 374 3150 3710 8040
2020-07-28 17:45 9.07 77 8040 (2019) 50 (2011) 1740 50 50 50 374 3150 3710 8040
2020-07-28 16:45 9.11 81 8040 (2019) 50 (2011) 1740 50 50 50 374 3150 3710 8040
2020-07-28 15:45 9.12 81 8040 (2019) 50 (2011) 1740 50 50 50 374 3150 3710 8040
2020-07-28 14:45 9.14 83 8040 (2019) 50 (2011) 1740 50 50 50 374 3150 3710 8040
2020-07-28 13:45 9.15 84 8040 (2019) 50 (2011) 1740 50 50 50 374 3150 3710 8040
2020-07-28 12:45 9.17 86 8040 (2019) 50 (2011) 1740 50 50 50 374 3150 3710 8040
2020-07-28 11:45 9.17 86 8040 (2019) 50 (2011) 1740 50 50 50 374 3150 3710 8040
2020-07-28 10:45 9.19 88 8040 (2019) 50 (2011) 1740 50 50 50 374 3150 3710 8040
2020-07-28 09:45 9.18 87 8040 (2019) 50 (2011) 1740 50 50 50 374 3150 3710 8040
2020-07-28 08:45 9.14 83 8040 (2019) 50 (2011) 1740 50 50 50 374 3150 3710 8040
2020-07-28 07:45 9.16 85 8040 (2019) 50 (2011) 1740 50 50 50 374 3150 3710 8040
2020-07-28 06:45 9.11 81 8040 (2019) 50 (2011) 1740 50 50 50 374 3150 3710 8040
2020-07-28 05:45 9.05 75 8040 (2019) 50 (2011) 1740 50 50 50 374 3150 3710 8040
2020-07-28 04:45 9.01 74 8040 (2019) 50 (2011) 1740 50 50 50 374 3150 3710 8040
2020-07-28 03:45 8.96 72 8040 (2019) 50 (2011) 1740 50 50 50 374 3150 3710 8040
2020-07-28 02:45 8.93 70 8040 (2019) 50 (2011) 1740 50 50 50 374 3150 3710 8040
2020-07-28 01:45 8.91 69 8040 (2019) 50 (2011) 1740 50 50 50 374 3150 3710 8040
2020-07-28 00:45 8.89 69 8040 (2019) 50 (2011) 1740 50 50 50 374 3150 3710 8040
2020-07-27 23:45 8.88 68 8280 (2019) 50 (2011) 1390 50 50 50 210 1660 2560 8280
2020-07-27 22:45 8.90 69 8280 (2019) 50 (2011) 1390 50 50 50 210 1660 2560 8280
2020-07-27 21:45 8.98 72 8280 (2019) 50 (2011) 1390 50 50 50 210 1660 2560 8280
2020-07-27 20:45 8.97 72 8280 (2019) 50 (2011) 1390 50 50 50 210 1660 2560 8280
2020-07-27 19:45 9.00 73 8280 (2019) 50 (2011) 1390 50 50 50 210 1660 2560 8280
2020-07-27 18:45 9.01 74 8280 (2019) 50 (2011) 1390 50 50 50 210 1660 2560 8280
2020-07-27 17:45 9.02 74 8280 (2019) 50 (2011) 1390 50 50 50 210 1660 2560 8280
2020-07-27 16:45 8.99 73 8280 (2019) 50 (2011) 1390 50 50 50 210 1660 2560 8280
2020-07-27 15:45 9.05 75 8280 (2019) 50 (2011) 1390 50 50 50 210 1660 2560 8280
2020-07-27 14:45 9.07 77 8280 (2019) 50 (2011) 1390 50 50 50 210 1660 2560 8280
2020-07-27 13:45 9.10 80 8280 (2019) 50 (2011) 1390 50 50 50 210 1660 2560 8280
2020-07-27 12:45 9.13 82 8280 (2019) 50 (2011) 1390 50 50 50 210 1660 2560 8280
2020-07-27 11:45 9.12 81 8280 (2019) 50 (2011) 1390 50 50 50 210 1660 2560 8280
2020-07-27 10:45 9.16 85 8280 (2019) 50 (2011) 1390 50 50 50 210 1660 2560 8280
2020-07-27 09:45 9.15 84 8280 (2019) 50 (2011) 1390 50 50 50 210 1660 2560 8280
2020-07-27 08:45 9.14 83 8280 (2019) 50 (2011) 1390 50 50 50 210 1660 2560 8280
2020-07-27 07:45 9.10 80 8280 (2019) 50 (2011) 1390 50 50 50 210 1660 2560 8280
2020-07-27 06:45 9.04 75 8280 (2019) 50 (2011) 1390 50 50 50 210 1660 2560 8280
2020-07-27 05:45 9.00 73 8280 (2019) 50 (2011) 1390 50 50 50 210 1660 2560 8280
2020-07-27 04:45 8.97 72 8280 (2019) 50 (2011) 1390 50 50 50 210 1660 2560 8280
2020-07-27 03:45 8.97 72 8280 (2019) 50 (2011) 1390 50 50 50 210 1660 2560 8280
2020-07-27 02:45 8.98 72 8280 (2019) 50 (2011) 1390 50 50 50 210 1660 2560 8280
2020-07-27 01:45 8.95 71 8280 (2019) 50 (2011) 1390 50 50 50 210 1660 2560 8280
2020-07-27 00:45 8.93 70 8280 (2019) 50 (2011) 1390 50 50 50 210 1660 2560 8280
2020-07-26 23:45 8.92 70 8100 (2019) 50 (2012) 1390 50 50 58 252 1720 2660 8100
2020-07-26 22:45 8.91 69 8100 (2019) 50 (2012) 1390 50 50 58 252 1720 2660 8100
2020-07-26 21:45 8.97 72 8100 (2019) 50 (2012) 1390 50 50 58 252 1720 2660 8100
2020-07-26 20:45 9.03 74 8100 (2019) 50 (2012) 1390 50 50 58 252 1720 2660 8100
2020-07-26 19:45 9.06 76 8100 (2019) 50 (2012) 1390 50 50 58 252 1720 2660 8100
2020-07-26 18:45 9.07 77 8100 (2019) 50 (2012) 1390 50 50 58 252 1720 2660 8100
2020-07-26 17:45 8.95 71 8100 (2019) 50 (2012) 1390 50 50 58 252 1720 2660 8100
2020-07-26 16:45 8.96 72 8100 (2019) 50 (2012) 1390 50 50 58 252 1720 2660 8100
2020-07-26 15:45 8.95 71 8100 (2019) 50 (2012) 1390 50 50 58 252 1720 2660 8100
2020-07-26 14:45 8.97 72 8100 (2019) 50 (2012) 1390 50 50 58 252 1720 2660 8100
2020-07-26 13:45 8.99 73 8100 (2019) 50 (2012) 1390 50 50 58 252 1720 2660 8100
2020-07-26 12:45 9.01 74 8100 (2019) 50 (2012) 1390 50 50 58 252 1720 2660 8100
2020-07-26 11:45 9.02 74 8100 (2019) 50 (2012) 1390 50 50 58 252 1720 2660 8100
2020-07-26 10:45 9.06 76 8100 (2019) 50 (2012) 1390 50 50 58 252 1720 2660 8100
2020-07-26 09:45 9.05 75 8100 (2019) 50 (2012) 1390 50 50 58 252 1720 2660 8100
2020-07-26 08:45 9.07 77 8100 (2019) 50 (2012) 1390 50 50 58 252 1720 2660 8100
2020-07-26 07:45 9.04 75 8100 (2019) 50 (2012) 1390 50 50 58 252 1720 2660 8100
2020-07-26 06:45 9.02 74 8100 (2019) 50 (2012) 1390 50 50 58 252 1720 2660 8100
2020-07-26 05:45 8.98 72 8100 (2019) 50 (2012) 1390 50 50 58 252 1720 2660 8100
2020-07-26 04:45 8.92 70 8100 (2019) 50 (2012) 1390 50 50 58 252 1720 2660 8100
2020-07-26 03:45 8.92 70 8100 (2019) 50 (2012) 1390 50 50 58 252 1720 2660 8100
2020-07-26 02:45 8.91 69 8100 (2019) 50 (2012) 1390 50 50 58 252 1720 2660 8100
2020-07-26 01:45 8.90 69 8100 (2019) 50 (2012) 1390 50 50 58 252 1720 2660 8100
2020-07-26 00:45 8.89 69 8100 (2019) 50 (2012) 1390 50 50 58 252 1720 2660 8100
2020-07-25 23:45 8.89 69 8140 (2019) 50 (2012) 1430 50 111 116 159 1850 2880 8140
2020-07-25 22:45 8.89 69 8140 (2019) 50 (2012) 1430 50 111 116 159 1850 2880 8140
2020-07-25 21:45 8.88 68 8140 (2019) 50 (2012) 1430 50 111 116 159 1850 2880 8140
2020-07-25 20:45 8.88 68 8140 (2019) 50 (2012) 1430 50 111 116 159 1850 2880 8140
2020-07-25 19:45 8.89 69 8140 (2019) 50 (2012) 1430 50 111 116 159 1850 2880 8140
2020-07-25 18:45 8.90 69 8140 (2019) 50 (2012) 1430 50 111 116 159 1850 2880 8140
2020-07-25 17:45 8.92 70 8140 (2019) 50 (2012) 1430 50 111 116 159 1850 2880 8140
2020-07-25 16:45 8.96 72 8140 (2019) 50 (2012) 1430 50 111 116 159 1850 2880 8140
2020-07-25 15:45 8.96 72 8140 (2019) 50 (2012) 1430 50 111 116 159 1850 2880 8140
2020-07-25 14:45 9.00 73 8140 (2019) 50 (2012) 1430 50 111 116 159 1850 2880 8140
2020-07-25 13:45 9.01 74 8140 (2019) 50 (2012) 1430 50 111 116 159 1850 2880 8140
2020-07-25 12:45 9.08 78 8140 (2019) 50 (2012) 1430 50 111 116 159 1850 2880 8140
2020-07-25 11:45 9.09 79 8140 (2019) 50 (2012) 1430 50 111 116 159 1850 2880 8140
2020-07-25 10:45 9.13 82 8140 (2019) 50 (2012) 1430 50 111 116 159 1850 2880 8140
2020-07-25 09:45 9.19 88 8140 (2019) 50 (2012) 1430 50 111 116 159 1850 2880 8140
2020-07-25 08:45 9.17 86 8140 (2019) 50 (2012) 1430 50 111 116 159 1850 2880 8140
2020-07-25 07:45 9.17 86 8140 (2019) 50 (2012) 1430 50 111 116 159 1850 2880 8140
2020-07-25 06:45 9.17 86 8140 (2019) 50 (2012) 1430 50 111 116 159 1850 2880 8140
2020-07-25 05:45 9.16 85 8140 (2019) 50 (2012) 1430 50 111 116 159 1850 2880 8140
2020-07-25 04:45 9.15 84 8140 (2019) 50 (2012) 1430 50 111 116 159 1850 2880 8140
2020-07-25 03:45 9.16 85 8140 (2019) 50 (2012) 1430 50 111 116 159 1850 2880 8140
2020-07-25 02:45 9.18 87 8140 (2019) 50 (2012) 1430 50 111 116 159 1850 2880 8140
2020-07-25 01:45 9.19 88 8140 (2019) 50 (2012) 1430 50 111 116 159 1850 2880 8140
2020-07-25 00:45 9.21 90 8140 (2019) 50 (2012) 1430 50 111 116 159 1850 2880 8140
2020-07-24 23:45 9.20 89 8280 (2019) 50 (2011) 1500 50 50 80 452 1970 3070 8280
2020-07-24 22:45 9.24 92 8280 (2019) 50 (2011) 1500 50 50 80 452 1970 3070 8280
2020-07-24 21:45 9.32 102 8280 (2019) 50 (2011) 1500 50 50 80 452 1970 3070 8280
2020-07-24 20:45 9.38 110 8280 (2019) 50 (2011) 1500 50 50 80 452 1970 3070 8280
2020-07-24 19:45 9.46 120 8280 (2019) 50 (2011) 1500 50 50 80 452 1970 3070 8280
2020-07-24 18:45 9.48 123 8280 (2019) 50 (2011) 1500 50 50 80 452 1970 3070 8280
2020-07-24 17:45 9.49 125 8280 (2019) 50 (2011) 1500 50 50 80 452 1970 3070 8280
2020-07-24 16:45 9.48 123 8280 (2019) 50 (2011) 1500 50 50 80 452 1970 3070 8280
2020-07-24 15:45 9.50 126 8280 (2019) 50 (2011) 1500 50 50 80 452 1970 3070 8280
2020-07-24 14:45 9.49 125 8280 (2019) 50 (2011) 1500 50 50 80 452 1970 3070 8280
2020-07-24 13:45 9.49 125 8280 (2019) 50 (2011) 1500 50 50 80 452 1970 3070 8280
2020-07-24 12:45 9.48 123 8280 (2019) 50 (2011) 1500 50 50 80 452 1970 3070 8280
2020-07-24 11:45 9.45 119 8280 (2019) 50 (2011) 1500 50 50 80 452 1970 3070 8280
2020-07-24 10:45 9.43 116 8280 (2019) 50 (2011) 1500 50 50 80 452 1970 3070 8280
2020-07-24 09:45 9.40 112 8280 (2019) 50 (2011) 1500 50 50 80 452 1970 3070 8280
2020-07-24 08:45 9.36 107 8280 (2019) 50 (2011) 1500 50 50 80 452 1970 3070 8280
2020-07-24 07:45 9.30 99 8280 (2019) 50 (2011) 1500 50 50 80 452 1970 3070 8280
2020-07-24 06:45 9.22 91 8280 (2019) 50 (2011) 1500 50 50 80 452 1970 3070 8280
2020-07-24 05:45 9.12 81 8280 (2019) 50 (2011) 1500 50 50 80 452 1970 3070 8280
2020-07-24 04:45 9.04 75 8280 (2019) 50 (2011) 1500 50 50 80 452 1970 3070 8280
2020-07-24 03:45 9.00 73 8280 (2019) 50 (2011) 1500 50 50 80 452 1970 3070 8280
2020-07-24 02:45 8.97 72 8280 (2019) 50 (2011) 1500 50 50 80 452 1970 3070 8280
2020-07-24 01:45 8.93 70 8280 (2019) 50 (2011) 1500 50 50 80 452 1970 3070 8280
2020-07-24 00:45 8.83 66 8280 (2019) 50 (2011) 1500 50 50 80 452 1970 3070 8280
2020-07-23 23:45 8.71 61 7910 (2019) 50 (2012) 1440 50 122 130 279 1880 2800 7910
2020-07-23 22:45 8.63 59 7910 (2019) 50 (2012) 1440 50 122 130 279 1880 2800 7910
2020-07-23 21:45 8.65 59 7910 (2019) 50 (2012) 1440 50 122 130 279 1880 2800 7910
2020-07-23 20:45 8.71 61 7910 (2019) 50 (2012) 1440 50 122 130 279 1880 2800 7910
2020-07-23 19:45 8.80 65 7910 (2019) 50 (2012) 1440 50 122 130 279 1880 2800 7910
2020-07-23 18:45 8.83 66 7910 (2019) 50 (2012) 1440 50 122 130 279 1880 2800 7910
2020-07-23 17:45 8.80 65 7910 (2019) 50 (2012) 1440 50 122 130 279 1880 2800 7910
2020-07-23 16:45 8.78 64 7910 (2019) 50 (2012) 1440 50 122 130 279 1880 2800 7910
2020-07-23 15:45 8.77 63 7910 (2019) 50 (2012) 1440 50 122 130 279 1880 2800 7910
2020-07-23 14:45 8.73 62 7910 (2019) 50 (2012) 1440 50 122 130 279 1880 2800 7910
2020-07-23 13:45 8.75 62 7910 (2019) 50 (2012) 1440 50 122 130 279 1880 2800 7910
2020-07-23 12:45 8.77 63 7910 (2019) 50 (2012) 1440 50 122 130 279 1880 2800 7910
2020-07-23 11:45 8.83 66 7910 (2019) 50 (2012) 1440 50 122 130 279 1880 2800 7910
2020-07-23 10:45 8.84 66 7910 (2019) 50 (2012) 1440 50 122 130 279 1880 2800 7910
2020-07-23 09:45 8.87 68 7910 (2019) 50 (2012) 1440 50 122 130 279 1880 2800 7910
2020-07-23 08:45 8.87 68 7910 (2019) 50 (2012) 1440 50 122 130 279 1880 2800 7910
2020-07-23 07:45 8.86 67 7910 (2019) 50 (2012) 1440 50 122 130 279 1880 2800 7910
2020-07-23 06:45 8.84 66 7910 (2019) 50 (2012) 1440 50 122 130 279 1880 2800 7910
2020-07-23 05:45 8.80 65 7910 (2019) 50 (2012) 1440 50 122 130 279 1880 2800 7910
2020-07-23 04:45 8.79 64 7910 (2019) 50 (2012) 1440 50 122 130 279 1880 2800 7910
2020-07-23 03:45 8.78 64 7910 (2019) 50 (2012) 1440 50 122 130 279 1880 2800 7910
2020-07-23 02:45 8.76 63 7910 (2019) 50 (2012) 1440 50 122 130 279 1880 2800 7910
2020-07-23 01:45 8.72 61 7910 (2019) 50 (2012) 1440 50 122 130 279 1880 2800 7910
2020-07-23 00:45 8.64 59 7910 (2019) 50 (2012) 1440 50 122 130 279 1880 2800 7910
2020-07-22 23:45 8.62 58 7100 (2019) 50 (2012) 1430 50 50 94 336 2170 3300 7100
2020-07-22 22:45 8.64 59 7100 (2019) 50 (2012) 1430 50 50 94 336 2170 3300 7100
2020-07-22 21:45 8.72 61 7100 (2019) 50 (2012) 1430 50 50 94 336 2170 3300 7100
2020-07-22 20:45 8.81 65 7100 (2019) 50 (2012) 1430 50 50 94 336 2170 3300 7100
2020-07-22 19:45 8.85 67 7100 (2019) 50 (2012) 1430 50 50 94 336 2170 3300 7100
2020-07-22 18:45 8.85 67 7100 (2019) 50 (2012) 1430 50 50 94 336 2170 3300 7100
2020-07-22 17:45 8.85 67 7100 (2019) 50 (2012) 1430 50 50 94 336 2170 3300 7100
2020-07-22 16:45 8.80 65 7100 (2019) 50 (2012) 1430 50 50 94 336 2170 3300 7100
2020-07-22 15:45 8.81 65 7100 (2019) 50 (2012) 1430 50 50 94 336 2170 3300 7100
2020-07-22 14:45 8.77 63 7100 (2019) 50 (2012) 1430 50 50 94 336 2170 3300 7100
2020-07-22 13:45 8.78 64 7100 (2019) 50 (2012) 1430 50 50 94 336 2170 3300 7100
2020-07-22 12:45 8.82 66 7100 (2019) 50 (2012) 1430 50 50 94 336 2170 3300 7100
2020-07-22 11:45 8.85 67 7100 (2019) 50 (2012) 1430 50 50 94 336 2170 3300 7100
2020-07-22 10:45 8.87 68 7100 (2019) 50 (2012) 1430 50 50 94 336 2170 3300 7100
2020-07-22 09:45 8.89 69 7100 (2019) 50 (2012) 1430 50 50 94 336 2170 3300 7100
2020-07-22 08:45 8.88 68 7100 (2019) 50 (2012) 1430 50 50 94 336 2170 3300 7100
2020-07-22 07:45 8.88 68 7100 (2019) 50 (2012) 1430 50 50 94 336 2170 3300 7100
2020-07-22 06:45 8.86 67 7100 (2019) 50 (2012) 1430 50 50 94 336 2170 3300 7100
2020-07-22 05:45 8.85 67 7100 (2019) 50 (2012) 1430 50 50 94 336 2170 3300 7100
2020-07-22 04:45 8.86 67 7100 (2019) 50 (2012) 1430 50 50 94 336 2170 3300 7100
2020-07-22 03:45 8.90 69 7100 (2019) 50 (2012) 1430 50 50 94 336 2170 3300 7100
2020-07-22 02:45 8.90 69 7100 (2019) 50 (2012) 1430 50 50 94 336 2170 3300 7100
2020-07-22 01:45 8.80 65 7100 (2019) 50 (2012) 1430 50 50 94 336 2170 3300 7100
2020-07-22 00:45 8.67 60 7100 (2019) 50 (2012) 1430 50 50 94 336 2170 3300 7100
2020-07-21 23:45 8.58 57 8880 (2019) 50 (2012) 1790 50 50 126 390 2840 4570 8880
2020-07-21 22:45 8.60 58 8880 (2019) 50 (2012) 1790 50 50 126 390 2840 4570 8880
2020-07-21 21:45 8.69 60 8880 (2019) 50 (2012) 1790 50 50 126 390 2840 4570 8880
2020-07-21 20:45 8.76 63 8880 (2019) 50 (2012) 1790 50 50 126 390 2840 4570 8880
2020-07-21 19:45 8.87 68 8880 (2019) 50 (2012) 1790 50 50 126 390 2840 4570 8880
2020-07-21 18:45 8.92 70 8880 (2019) 50 (2012) 1790 50 50 126 390 2840 4570 8880
2020-07-21 17:45 8.88 68 8880 (2019) 50 (2012) 1790 50 50 126 390 2840 4570 8880
2020-07-21 16:45 8.89 69 8880 (2019) 50 (2012) 1790 50 50 126 390 2840 4570 8880
2020-07-21 15:45 8.92 70 8880 (2019) 50 (2012) 1790 50 50 126 390 2840 4570 8880
2020-07-21 14:45 8.95 71 8880 (2019) 50 (2012) 1790 50 50 126 390 2840 4570 8880
2020-07-21 13:45 8.96 72 8880 (2019) 50 (2012) 1790 50 50 126 390 2840 4570 8880
2020-07-21 12:45 9.00 73 8880 (2019) 50 (2012) 1790 50 50 126 390 2840 4570 8880
2020-07-21 11:45 9.03 74 8880 (2019) 50 (2012) 1790 50 50 126 390 2840 4570 8880
2020-07-21 10:45 9.04 75 8880 (2019) 50 (2012) 1790 50 50 126 390 2840 4570 8880
2020-07-21 09:45 9.05 75 8880 (2019) 50 (2012) 1790 50 50 126 390 2840 4570 8880
2020-07-21 08:45 9.06 76 8880 (2019) 50 (2012) 1790 50 50 126 390 2840 4570 8880
2020-07-21 07:45 9.06 76 8880 (2019) 50 (2012) 1790 50 50 126 390 2840 4570 8880
2020-07-21 06:45 9.02 74 8880 (2019) 50 (2012) 1790 50 50 126 390 2840 4570 8880
2020-07-21 05:45 8.98 72 8880 (2019) 50 (2012) 1790 50 50 126 390 2840 4570 8880
2020-07-21 04:45 8.92 70 8880 (2019) 50 (2012) 1790 50 50 126 390 2840 4570 8880
2020-07-21 03:45 8.89 69 8880 (2019) 50 (2012) 1790 50 50 126 390 2840 4570 8880
2020-07-21 02:45 8.89 69 8880 (2019) 50 (2012) 1790 50 50 126 390 2840 4570 8880
2020-07-21 01:45 8.88 68 8880 (2019) 50 (2012) 1790 50 50 126 390 2840 4570 8880
2020-07-21 00:45 8.87 68 8880 (2019) 50 (2012) 1790 50 50 126 390 2840 4570 8880
2020-07-20 23:45 8.85 67 9400 (2019) 50 (2012) 1720 50 50 114 428 2150 3070 9400
2020-07-20 22:45 8.83 66 9400 (2019) 50 (2012) 1720 50 50 114 428 2150 3070 9400
2020-07-20 21:45 8.83 66 9400 (2019) 50 (2012) 1720 50 50 114 428 2150 3070 9400
2020-07-20 20:45 8.84 66 9400 (2019) 50 (2012) 1720 50 50 114 428 2150 3070 9400
2020-07-20 19:45 8.87 68 9400 (2019) 50 (2012) 1720 50 50 114 428 2150 3070 9400
2020-07-20 18:45 8.90 69 9400 (2019) 50 (2012) 1720 50 50 114 428 2150 3070 9400
2020-07-20 17:45 8.92 70 9400 (2019) 50 (2012) 1720 50 50 114 428 2150 3070 9400
2020-07-20 16:45 8.89 69 9400 (2019) 50 (2012) 1720 50 50 114 428 2150 3070 9400
2020-07-20 15:45 8.85 67 9400 (2019) 50 (2012) 1720 50 50 114 428 2150 3070 9400
2020-07-20 14:45 8.87 68 9400 (2019) 50 (2012) 1720 50 50 114 428 2150 3070 9400
2020-07-20 13:45 8.82 66 9400 (2019) 50 (2012) 1720 50 50 114 428 2150 3070 9400
2020-07-20 12:45 8.86 67 9400 (2019) 50 (2012) 1720 50 50 114 428 2150 3070 9400
2020-07-20 11:45 8.85 67 9400 (2019) 50 (2012) 1720 50 50 114 428 2150 3070 9400
2020-07-20 10:45 8.95 71 9400 (2019) 50 (2012) 1720 50 50 114 428 2150 3070 9400
2020-07-20 09:45 8.97 72 9400 (2019) 50 (2012) 1720 50 50 114 428 2150 3070 9400
2020-07-20 08:45 8.97 72 9400 (2019) 50 (2012) 1720 50 50 114 428 2150 3070 9400
2020-07-20 07:45 8.92 70 9400 (2019) 50 (2012) 1720 50 50 114 428 2150 3070 9400
2020-07-20 06:45 8.85 67 9400 (2019) 50 (2012) 1720 50 50 114 428 2150 3070 9400
2020-07-20 05:45 8.75 62 9400 (2019) 50 (2012) 1720 50 50 114 428 2150 3070 9400
2020-07-20 04:45 8.70 61 9400 (2019) 50 (2012) 1720 50 50 114 428 2150 3070 9400
2020-07-20 03:45 8.71 61 9400 (2019) 50 (2012) 1720 50 50 114 428 2150 3070 9400
2020-07-20 02:45 8.77 63 9400 (2019) 50 (2012) 1720 50 50 114 428 2150 3070 9400
2020-07-20 01:45 8.80 65 9400 (2019) 50 (2012) 1720 50 50 114 428 2150 3070 9400
2020-07-20 00:45 8.87 68 9400 (2019) 50 (2012) 1720 50 50 114 428 2150 3070 9400
2020-07-19 23:45 8.85 67 9560 (2019) 50 (2012) 1730 50 50 133 317 2180 2970 9560
2020-07-19 22:45 8.83 66 9560 (2019) 50 (2012) 1730 50 50 133 317 2180 2970 9560
2020-07-19 21:45 8.78 64 9560 (2019) 50 (2012) 1730 50 50 133 317 2180 2970 9560
2020-07-19 20:45 8.73 62 9560 (2019) 50 (2012) 1730 50 50 133 317 2180 2970 9560
2020-07-19 19:45 8.69 60 9560 (2019) 50 (2012) 1730 50 50 133 317 2180 2970 9560
2020-07-19 18:45 8.71 61 9560 (2019) 50 (2012) 1730 50 50 133 317 2180 2970 9560
2020-07-19 17:45 8.65 59 9560 (2019) 50 (2012) 1730 50 50 133 317 2180 2970 9560
2020-07-19 16:45 8.63 59 9560 (2019) 50 (2012) 1730 50 50 133 317 2180 2970 9560
2020-07-19 15:45 8.57 57 9560 (2019) 50 (2012) 1730 50 50 133 317 2180 2970 9560
2020-07-19 14:45 8.55 56 9560 (2019) 50 (2012) 1730 50 50 133 317 2180 2970 9560
2020-07-19 13:45 8.52 55 9560 (2019) 50 (2012) 1730 50 50 133 317 2180 2970 9560
2020-07-19 12:45 8.46 54 9560 (2019) 50 (2012) 1730 50 50 133 317 2180 2970 9560
2020-07-19 11:45 8.49 55 9560 (2019) 50 (2012) 1730 50 50 133 317 2180 2970 9560
2020-07-19 10:45 8.50 55 9560 (2019) 50 (2012) 1730 50 50 133 317 2180 2970 9560
2020-07-19 09:45 8.50 55 9560 (2019) 50 (2012) 1730 50 50 133 317 2180 2970 9560
2020-07-19 08:45 8.49 55 9560 (2019) 50 (2012) 1730 50 50 133 317 2180 2970 9560
2020-07-19 07:45 8.55 56 9560 (2019) 50 (2012) 1730 50 50 133 317 2180 2970 9560
2020-07-19 06:45 8.58 57 9560 (2019) 50 (2012) 1730 50 50 133 317 2180 2970 9560
2020-07-19 05:45 8.57 57 9560 (2019) 50 (2012) 1730 50 50 133 317 2180 2970 9560
2020-07-19 04:45 8.65 59 9560 (2019) 50 (2012) 1730 50 50 133 317 2180 2970 9560
2020-07-19 03:45 8.70 61 9560 (2019) 50 (2012) 1730 50 50 133 317 2180 2970 9560
2020-07-19 02:45 8.70 61 9560 (2019) 50 (2012) 1730 50 50 133 317 2180 2970 9560
2020-07-19 01:45 8.69 60 9560 (2019) 50 (2012) 1730 50 50 133 317 2180 2970 9560
2020-07-19 00:45 8.65 59 9560 (2019) 50 (2012) 1730 50 50 133 317 2180 2970 9560
2020-07-18 23:45 8.60 58 9360 (2019) 50 (2012) 1950 50 53 162 406 3190 4770 9360
2020-07-18 22:45 8.54 56 9360 (2019) 50 (2012) 1950 50 53 162 406 3190 4770 9360
2020-07-18 21:45 8.51 55 9360 (2019) 50 (2012) 1950 50 53 162 406 3190 4770 9360
2020-07-18 20:45 8.49 55 9360 (2019) 50 (2012) 1950 50 53 162 406 3190 4770 9360
2020-07-18 19:45 8.47 55 9360 (2019) 50 (2012) 1950 50 53 162 406 3190 4770 9360
2020-07-18 18:45 8.49 55 9360 (2019) 50 (2012) 1950 50 53 162 406 3190 4770 9360
2020-07-18 17:45 8.48 55 9360 (2019) 50 (2012) 1950 50 53 162 406 3190 4770 9360
2020-07-18 16:45 8.52 55 9360 (2019) 50 (2012) 1950 50 53 162 406 3190 4770 9360
2020-07-18 15:45 8.51 55 9360 (2019) 50 (2012) 1950 50 53 162 406 3190 4770 9360
2020-07-18 14:45 8.53 56 9360 (2019) 50 (2012) 1950 50 53 162 406 3190 4770 9360
2020-07-18 13:45 8.56 56 9360 (2019) 50 (2012) 1950 50 53 162 406 3190 4770 9360
2020-07-18 12:45 8.63 59 9360 (2019) 50 (2012) 1950 50 53 162 406 3190 4770 9360
2020-07-18 11:45 8.63 59 9360 (2019) 50 (2012) 1950 50 53 162 406 3190 4770 9360
2020-07-18 10:45 8.70 61 9360 (2019) 50 (2012) 1950 50 53 162 406 3190 4770 9360
2020-07-18 09:45 8.70 61 9360 (2019) 50 (2012) 1950 50 53 162 406 3190 4770 9360
2020-07-18 08:45 8.76 63 9360 (2019) 50 (2012) 1950 50 53 162 406 3190 4770 9360
2020-07-18 07:45 8.78 64 9360 (2019) 50 (2012) 1950 50 53 162 406 3190 4770 9360
2020-07-18 06:45 8.76 63 9360 (2019) 50 (2012) 1950 50 53 162 406 3190 4770 9360
2020-07-18 05:45 8.74 62 9360 (2019) 50 (2012) 1950 50 53 162 406 3190 4770 9360
2020-07-18 04:45 8.72 61 9360 (2019) 50 (2012) 1950 50 53 162 406 3190 4770 9360
2020-07-18 03:45 8.70 61 9360 (2019) 50 (2012) 1950 50 53 162 406 3190 4770 9360
2020-07-18 02:45 8.72 61 9360 (2019) 50 (2012) 1950 50 53 162 406 3190 4770 9360
2020-07-18 01:45 8.64 59 9360 (2019) 50 (2012) 1950 50 53 162 406 3190 4770 9360
2020-07-18 00:45 8.52 55 9360 (2019) 50 (2012) 1950 50 53 162 406 3190 4770 9360
2020-07-17 23:45 8.42 54 8400 (2019) 50 (2012) 2110 50 71 101 305 4390 7000 8400
2020-07-17 22:45 8.38 53 8400 (2019) 50 (2012) 2110 50 71 101 305 4390 7000 8400
2020-07-17 21:45 8.49 55 8400 (2019) 50 (2012) 2110 50 71 101 305 4390 7000 8400
2020-07-17 20:45 8.61 58 8400 (2019) 50 (2012) 2110 50 71 101 305 4390 7000 8400
2020-07-17 19:45 8.76 63 8400 (2019) 50 (2012) 2110 50 71 101 305 4390 7000 8400
2020-07-17 18:45 8.83 66 8400 (2019) 50 (2012) 2110 50 71 101 305 4390 7000 8400
2020-07-17 17:45 8.84 66 8400 (2019) 50 (2012) 2110 50 71 101 305 4390 7000 8400
2020-07-17 16:45 8.83 66 8400 (2019) 50 (2012) 2110 50 71 101 305 4390 7000 8400
2020-07-17 15:45 8.81 65 8400 (2019) 50 (2012) 2110 50 71 101 305 4390 7000 8400
2020-07-17 14:45 8.77 63 8400 (2019) 50 (2012) 2110 50 71 101 305 4390 7000 8400
2020-07-17 13:45 8.76 63 8400 (2019) 50 (2012) 2110 50 71 101 305 4390 7000 8400
2020-07-17 12:45 8.73 62 8400 (2019) 50 (2012) 2110 50 71 101 305 4390 7000 8400
2020-07-17 11:45 8.74 62 8400 (2019) 50 (2012) 2110 50 71 101 305 4390 7000 8400
2020-07-17 10:45 8.73 62 8400 (2019) 50 (2012) 2110 50 71 101 305 4390 7000 8400
2020-07-17 09:45 8.74 62 8400 (2019) 50 (2012) 2110 50 71 101 305 4390 7000 8400
2020-07-17 08:45 8.72 61 8400 (2019) 50 (2012) 2110 50 71 101 305 4390 7000 8400
2020-07-17 07:45 8.79 64 8400 (2019) 50 (2012) 2110 50 71 101 305 4390 7000 8400
2020-07-17 06:45 8.82 66 8400 (2019) 50 (2012) 2110 50 71 101 305 4390 7000 8400
2020-07-17 05:45 8.86 67 8400 (2019) 50 (2012) 2110 50 71 101 305 4390 7000 8400
2020-07-17 04:45 8.91 69 8400 (2019) 50 (2012) 2110 50 71 101 305 4390 7000 8400
2020-07-17 03:45 8.92 70 8400 (2019) 50 (2012) 2110 50 71 101 305 4390 7000 8400
2020-07-17 02:45 8.89 69 8400 (2019) 50 (2012) 2110 50 71 101 305 4390 7000 8400
2020-07-17 01:45 8.80 65 8400 (2019) 50 (2012) 2110 50 71 101 305 4390 7000 8400
2020-07-17 00:45 8.73 62 8400 (2019) 50 (2012) 2110 50 71 101 305 4390 7000 8400
2020-07-16 23:45 8.68 60 11000 (2015) 50 (2012) 2560 50 115 142 390 4720 7690 11000
2020-07-16 22:45 8.68 60 11000 (2015) 50 (2012) 2560 50 115 142 390 4720 7690 11000
2020-07-16 21:45 8.76 63 11000 (2015) 50 (2012) 2560 50 115 142 390 4720 7690 11000
2020-07-16 20:45 8.83 66 11000 (2015) 50 (2012) 2560 50 115 142 390 4720 7690 11000
2020-07-16 19:45 8.90 69 11000 (2015) 50 (2012) 2560 50 115 142 390 4720 7690 11000
2020-07-16 18:45 8.97 72 11000 (2015) 50 (2012) 2560 50 115 142 390 4720 7690 11000
2020-07-16 17:45 8.97 72 11000 (2015) 50 (2012) 2560 50 115 142 390 4720 7690 11000
2020-07-16 16:45 8.97 72 11000 (2015) 50 (2012) 2560 50 115 142 390 4720 7690 11000
2020-07-16 15:45 8.99 73 11000 (2015) 50 (2012) 2560 50 115 142 390 4720 7690 11000
2020-07-16 14:45 8.95 71 11000 (2015) 50 (2012) 2560 50 115 142 390 4720 7690 11000
2020-07-16 13:45 8.97 72 11000 (2015) 50 (2012) 2560 50 115 142 390 4720 7690 11000
2020-07-16 12:45 9.00 73 11000 (2015) 50 (2012) 2560 50 115 142 390 4720 7690 11000
2020-07-16 11:45 9.03 74 11000 (2015) 50 (2012) 2560 50 115 142 390 4720 7690 11000
2020-07-16 10:45 9.04 75 11000 (2015) 50 (2012) 2560 50 115 142 390 4720 7690 11000
2020-07-16 09:45 9.04 75 11000 (2015) 50 (2012) 2560 50 115 142 390 4720 7690 11000
2020-07-16 08:45 9.03 74 11000 (2015) 50 (2012) 2560 50 115 142 390 4720 7690 11000
2020-07-16 07:45 9.01 74 11000 (2015) 50 (2012) 2560 50 115 142 390 4720 7690 11000
2020-07-16 05:45 8.97 72 11000 (2015) 50 (2012) 2560 50 115 142 390 4720 7690 11000
2020-07-16 04:45 8.96 72 11000 (2015) 50 (2012) 2560 50 115 142 390 4720 7690 11000
2020-07-16 03:45 8.96 72 11000 (2015) 50 (2012) 2560 50 115 142 390 4720 7690 11000
2020-07-16 02:45 8.94 71 11000 (2015) 50 (2012) 2560 50 115 142 390 4720 7690 11000
2020-07-16 01:45 8.88 68 11000 (2015) 50 (2012) 2560 50 115 142 390 4720 7690 11000
2020-07-16 00:45 8.82 66 11000 (2015) 50 (2012) 2560 50 115 142 390 4720 7690 11000
2020-07-15 23:45 8.76 63 15600 (2015) 50 (2012) 3220 50 164 199 319 5430 8320 15600
2020-07-15 22:45 8.78 64 15600 (2015) 50 (2012) 3220 50 164 199 319 5430 8320 15600
2020-07-15 21:45 8.86 67 15600 (2015) 50 (2012) 3220 50 164 199 319 5430 8320 15600
2020-07-15 20:45 8.94 71 15600 (2015) 50 (2012) 3220 50 164 199 319 5430 8320 15600
2020-07-15 19:45 9.02 74 15600 (2015) 50 (2012) 3220 50 164 199 319 5430 8320 15600
2020-07-15 18:45 9.03 74 15600 (2015) 50 (2012) 3220 50 164 199 319 5430 8320 15600
2020-07-15 17:45 9.09 79 15600 (2015) 50 (2012) 3220 50 164 199 319 5430 8320 15600
2020-07-15 16:45 9.14 83 15600 (2015) 50 (2012) 3220 50 164 199 319 5430 8320 15600
2020-07-15 15:45 9.18 87 15600 (2015) 50 (2012) 3220 50 164 199 319 5430 8320 15600
2020-07-15 14:45 9.19 88 15600 (2015) 50 (2012) 3220 50 164 199 319 5430 8320 15600
2020-07-15 13:45 9.25 93 15600 (2015) 50 (2012) 3220 50 164 199 319 5430 8320 15600
2020-07-15 12:45 9.25 93 15600 (2015) 50 (2012) 3220 50 164 199 319 5430 8320 15600
2020-07-15 11:45 9.29 98 15600 (2015) 50 (2012) 3220 50 164 199 319 5430 8320 15600
2020-07-15 10:45 9.25 93 15600 (2015) 50 (2012) 3220 50 164 199 319 5430 8320 15600
2020-07-15 09:45 9.30 99 15600 (2015) 50 (2012) 3220 50 164 199 319 5430 8320 15600
2020-07-15 08:45 9.31 101 15600 (2015) 50 (2012) 3220 50 164 199 319 5430 8320 15600
2020-07-15 07:45 9.32 102 15600 (2015) 50 (2012) 3220 50 164 199 319 5430 8320 15600
2020-07-15 06:45 9.34 104 15600 (2015) 50 (2012) 3220 50 164 199 319 5430 8320 15600
2020-07-15 05:45 9.32 102 15600 (2015) 50 (2012) 3220 50 164 199 319 5430 8320 15600
2020-07-15 04:45 9.28 97 15600 (2015) 50 (2012) 3220 50 164 199 319 5430 8320 15600
2020-07-15 03:45 9.21 90 15600 (2015) 50 (2012) 3220 50 164 199 319 5430 8320 15600
2020-07-15 02:45 9.13 82 15600 (2015) 50 (2012) 3220 50 164 199 319 5430 8320 15600
2020-07-15 01:45 9.01 74 15600 (2015) 50 (2012) 3220 50 164 199 319 5430 8320 15600
2020-07-15 00:45 8.93 70 15600 (2015) 50 (2012) 3220 50 164 199 319 5430 8320 15600
2020-07-14 23:45 8.93 70 18500 (2015) 50 (2012) 3670 50 134 151 467 5910 8710 18500
2020-07-14 22:45 9.00 73 18500 (2015) 50 (2012) 3670 50 134 151 467 5910 8710 18500
2020-07-14 21:45 9.12 81 18500 (2015) 50 (2012) 3670 50 134 151 467 5910 8710 18500
2020-07-14 20:45 9.22 91 18500 (2015) 50 (2012) 3670 50 134 151 467 5910 8710 18500
2020-07-14 19:45 9.33 103 18500 (2015) 50 (2012) 3670 50 134 151 467 5910 8710 18500
2020-07-14 18:45 9.42 115 18500 (2015) 50 (2012) 3670 50 134 151 467 5910 8710 18500
2020-07-14 17:45 9.45 119 18500 (2015) 50 (2012) 3670 50 134 151 467 5910 8710 18500
2020-07-14 16:45 9.50 126 18500 (2015) 50 (2012) 3670 50 134 151 467 5910 8710 18500
2020-07-14 15:45 9.50 126 18500 (2015) 50 (2012) 3670 50 134 151 467 5910 8710 18500
2020-07-14 14:45 9.46 120 18500 (2015) 50 (2012) 3670 50 134 151 467 5910 8710 18500
2020-07-14 13:45 9.53 130 18500 (2015) 50 (2012) 3670 50 134 151 467 5910 8710 18500
2020-07-14 12:45 9.58 138 18500 (2015) 50 (2012) 3670 50 134 151 467 5910 8710 18500
2020-07-14 11:45 9.57 136 18500 (2015) 50 (2012) 3670 50 134 151 467 5910 8710 18500
2020-07-14 10:45 9.58 138 18500 (2015) 50 (2012) 3670 50 134 151 467 5910 8710 18500
2020-07-14 09:45 9.66 150 18500 (2015) 50 (2012) 3670 50 134 151 467 5910 8710 18500
2020-07-14 08:45 9.64 147 18500 (2015) 50 (2012) 3670 50 134 151 467 5910 8710 18500
2020-07-14 07:45 9.63 145 18500 (2015) 50 (2012) 3670 50 134 151 467 5910 8710 18500
2020-07-14 06:45 9.69 155 18500 (2015) 50 (2012) 3670 50 134 151 467 5910 8710 18500
2020-07-14 05:45 9.70 157 18500 (2015) 50 (2012) 3670 50 134 151 467 5910 8710 18500
2020-07-14 04:45 9.69 155 18500 (2015) 50 (2012) 3670 50 134 151 467 5910 8710 18500
2020-07-14 03:45 9.63 145 18500 (2015) 50 (2012) 3670 50 134 151 467 5910 8710 18500
2020-07-14 02:45 9.52 129 18500 (2015) 50 (2012) 3670 50 134 151 467 5910 8710 18500
2020-07-14 01:45 9.40 112 18500 (2015) 50 (2012) 3670 50 134 151 467 5910 8710 18500
2020-07-14 00:45 9.28 97 18500 (2015) 50 (2012) 3670 50 134 151 467 5910 8710 18500
2020-07-13 23:45 9.22 91 19300 (2015) 50 (2012) 3780 50 135 199 603 5820 9310 19300
2020-07-13 22:45 9.24 92 19300 (2015) 50 (2012) 3780 50 135 199 603 5820 9310 19300
2020-07-13 21:45 9.37 108 19300 (2015) 50 (2012) 3780 50 135 199 603 5820 9310 19300
2020-07-13 20:45 9.49 125 19300 (2015) 50 (2012) 3780 50 135 199 603 5820 9310 19300
2020-07-13 19:45 9.58 138 19300 (2015) 50 (2012) 3780 50 135 199 603 5820 9310 19300
2020-07-13 18:45 9.68 153 19300 (2015) 50 (2012) 3780 50 135 199 603 5820 9310 19300
2020-07-13 17:45 9.72 160 19300 (2015) 50 (2012) 3780 50 135 199 603 5820 9310 19300
2020-07-13 16:45 9.71 159 19300 (2015) 50 (2012) 3780 50 135 199 603 5820 9310 19300
2020-07-13 15:45 9.71 159 19300 (2015) 50 (2012) 3780 50 135 199 603 5820 9310 19300
2020-07-13 14:45 9.77 169 19300 (2015) 50 (2012) 3780 50 135 199 603 5820 9310 19300
2020-07-13 13:45 9.76 167 19300 (2015) 50 (2012) 3780 50 135 199 603 5820 9310 19300
2020-07-13 12:45 9.81 176 19300 (2015) 50 (2012) 3780 50 135 199 603 5820 9310 19300
2020-07-13 11:45 9.81 176 19300 (2015) 50 (2012) 3780 50 135 199 603 5820 9310 19300
2020-07-13 10:45 9.82 178 19300 (2015) 50 (2012) 3780 50 135 199 603 5820 9310 19300
2020-07-13 09:45 9.84 182 19300 (2015) 50 (2012) 3780 50 135 199 603 5820 9310 19300
2020-07-13 08:45 9.84 182 19300 (2015) 50 (2012) 3780 50 135 199 603 5820 9310 19300
2020-07-13 07:45 9.82 178 19300 (2015) 50 (2012) 3780 50 135 199 603 5820 9310 19300
2020-07-13 06:45 9.79 173 19300 (2015) 50 (2012) 3780 50 135 199 603 5820 9310 19300
2020-07-13 05:45 9.75 166 19300 (2015) 50 (2012) 3780 50 135 199 603 5820 9310 19300
2020-07-13 04:45 9.76 167 19300 (2015) 50 (2012) 3780 50 135 199 603 5820 9310 19300
2020-07-13 03:45 9.77 169 19300 (2015) 50 (2012) 3780 50 135 199 603 5820 9310 19300
2020-07-13 02:45 9.76 167 19300 (2015) 50 (2012) 3780 50 135 199 603 5820 9310 19300
2020-07-13 01:45 9.74 164 19300 (2015) 50 (2012) 3780 50 135 199 603 5820 9310 19300
2020-07-13 00:45 9.70 157 19300 (2015) 50 (2012) 3780 50 135 199 603 5820 9310 19300
2020-07-12 23:45 9.67 152 19800 (2015) 97 (2012) 4200 97 160 223 828 7160 10500 19800
2020-07-12 22:45 9.67 152 19800 (2015) 97 (2012) 4200 97 160 223 828 7160 10500 19800
2020-07-12 21:45 9.71 159 19800 (2015) 97 (2012) 4200 97 160 223 828 7160 10500 19800
2020-07-12 20:45 9.79 173 19800 (2015) 97 (2012) 4200 97 160 223 828 7160 10500 19800
2020-07-12 19:45 9.86 186 19800 (2015) 97 (2012) 4200 97 160 223 828 7160 10500 19800
2020-07-12 18:45 9.91 195 19800 (2015) 97 (2012) 4200 97 160 223 828 7160 10500 19800
2020-07-12 17:45 9.88 190 19800 (2015) 97 (2012) 4200 97 160 223 828 7160 10500 19800
2020-07-12 16:45 9.86 186 19800 (2015) 97 (2012) 4200 97 160 223 828 7160 10500 19800
2020-07-12 15:45 9.85 184 19800 (2015) 97 (2012) 4200 97 160 223 828 7160 10500 19800
2020-07-12 14:45 9.82 178 19800 (2015) 97 (2012) 4200 97 160 223 828 7160 10500 19800
2020-07-12 13:45 9.81 176 19800 (2015) 97 (2012) 4200 97 160 223 828 7160 10500 19800
2020-07-12 12:45 9.82 178 19800 (2015) 97 (2012) 4200 97 160 223 828 7160 10500 19800
2020-07-12 11:45 9.83 180 19800 (2015) 97 (2012) 4200 97 160 223 828 7160 10500 19800
2020-07-12 10:45 9.83 180 19800 (2015) 97 (2012) 4200 97 160 223 828 7160 10500 19800
2020-07-12 09:45 9.82 178 19800 (2015) 97 (2012) 4200 97 160 223 828 7160 10500 19800
2020-07-12 08:45 9.82 178 19800 (2015) 97 (2012) 4200 97 160 223 828 7160 10500 19800
2020-07-12 07:45 9.81 176 19800 (2015) 97 (2012) 4200 97 160 223 828 7160 10500 19800
2020-07-12 06:45 9.79 173 19800 (2015) 97 (2012) 4200 97 160 223 828 7160 10500 19800
2020-07-12 05:45 9.77 169 19800 (2015) 97 (2012) 4200 97 160 223 828 7160 10500 19800
2020-07-12 04:45 9.78 171 19800 (2015) 97 (2012) 4200 97 160 223 828 7160 10500 19800
2020-07-12 03:45 9.78 171 19800 (2015) 97 (2012) 4200 97 160 223 828 7160 10500 19800
2020-07-12 02:45 9.79 173 19800 (2015) 97 (2012) 4200 97 160 223 828 7160 10500 19800
2020-07-12 01:45 9.79 173 19800 (2015) 97 (2012) 4200 97 160 223 828 7160 10500 19800
2020-07-12 00:45 9.81 176 19800 (2015) 97 (2012) 4200 97 160 223 828 7160 10500 19800
2020-07-11 23:45 9.83 180 21000 (2015) 60 (2012) 5040 60 240 315 1210 9850 13400 21000
2020-07-11 22:45 9.85 184 21000 (2015) 60 (2012) 5040 60 240 315 1210 9850 13400 21000
2020-07-11 21:45 9.86 186 21000 (2015) 60 (2012) 5040 60 240 315 1210 9850 13400 21000
2020-07-11 20:45 9.85 184 21000 (2015) 60 (2012) 5040 60 240 315 1210 9850 13400 21000
2020-07-11 19:45 9.84 182 21000 (2015) 60 (2012) 5040 60 240 315 1210 9850 13400 21000
2020-07-11 18:45 9.82 178 21000 (2015) 60 (2012) 5040 60 240 315 1210 9850 13400 21000
2020-07-11 17:45 9.79 173 21000 (2015) 60 (2012) 5040 60 240 315 1210 9850 13400 21000
2020-07-11 16:45 9.78 171 21000 (2015) 60 (2012) 5040 60 240 315 1210 9850 13400 21000
2020-07-11 15:45 9.78 171 21000 (2015) 60 (2012) 5040 60 240 315 1210 9850 13400 21000
2020-07-11 14:45 9.76 167 21000 (2015) 60 (2012) 5040 60 240 315 1210 9850 13400 21000
2020-07-11 13:45 9.83 180 21000 (2015) 60 (2012) 5040 60 240 315 1210 9850 13400 21000
2020-07-11 12:45 9.87 188 21000 (2015) 60 (2012) 5040 60 240 315 1210 9850 13400 21000
2020-07-11 11:45 9.92 197 21000 (2015) 60 (2012) 5040 60 240 315 1210 9850 13400 21000
2020-07-11 10:45 9.94 201 21000 (2015) 60 (2012) 5040 60 240 315 1210 9850 13400 21000
2020-07-11 09:45 9.95 203 21000 (2015) 60 (2012) 5040 60 240 315 1210 9850 13400 21000
2020-07-11 08:45 9.94 201 21000 (2015) 60 (2012) 5040 60 240 315 1210 9850 13400 21000
2020-07-11 07:45 9.99 211 21000 (2015) 60 (2012) 5040 60 240 315 1210 9850 13400 21000
2020-07-11 06:45 10.01 216 21000 (2015) 60 (2012) 5040 60 240 315 1210 9850 13400 21000
2020-07-11 05:45 1 214 21000 (2015) 60 (2012) 5040 60 240 315 1210 9850 13400 21000
2020-07-11 04:45 9.98 209 21000 (2015) 60 (2012) 5040 60 240 315 1210 9850 13400 21000
2020-07-11 03:45 9.92 197 21000 (2015) 60 (2012) 5040 60 240 315 1210 9850 13400 21000
2020-07-11 02:45 9.80 175 21000 (2015) 60 (2012) 5040 60 240 315 1210 9850 13400 21000
2020-07-11 01:45 9.71 159 21000 (2015) 60 (2012) 5040 60 240 315 1210 9850 13400 21000
2020-07-11 00:45 9.64 147 21000 (2015) 60 (2012) 5040 60 240 315 1210 9850 13400 21000
2020-07-10 23:45 9.63 145 20800 (2015) 54 (2011) 5870 54 67 102 2320 13200 17700 20800
2020-07-10 22:45 9.66 150 20800 (2015) 54 (2011) 5870 54 67 102 2320 13200 17700 20800
2020-07-10 21:45 9.72 160 20800 (2015) 54 (2011) 5870 54 67 102 2320 13200 17700 20800
2020-07-10 20:45 9.80 175 20800 (2015) 54 (2011) 5870 54 67 102 2320 13200 17700 20800
2020-07-10 19:45 9.88 190 20800 (2015) 54 (2011) 5870 54 67 102 2320 13200 17700 20800
2020-07-10 18:45 9.94 201 20800 (2015) 54 (2011) 5870 54 67 102 2320 13200 17700 20800
2020-07-10 17:45 9.97 207 20800 (2015) 54 (2011) 5870 54 67 102 2320 13200 17700 20800
2020-07-10 16:45 9.99 211 20800 (2015) 54 (2011) 5870 54 67 102 2320 13200 17700 20800
2020-07-10 15:45 10.01 216 20800 (2015) 54 (2011) 5870 54 67 102 2320 13200 17700 20800
2020-07-10 14:45 10.02 218 20800 (2015) 54 (2011) 5870 54 67 102 2320 13200 17700 20800
2020-07-10 13:45 10.04 222 20800 (2015) 54 (2011) 5870 54 67 102 2320 13200 17700 20800
2020-07-10 12:45 10.07 229 20800 (2015) 54 (2011) 5870 54 67 102 2320 13200 17700 20800
2020-07-10 11:45 10.09 234 20800 (2015) 54 (2011) 5870 54 67 102 2320 13200 17700 20800
2020-07-10 10:45 10.14 246 20800 (2015) 54 (2011) 5870 54 67 102 2320 13200 17700 20800
2020-07-10 09:45 10.13 244 20800 (2015) 54 (2011) 5870 54 67 102 2320 13200 17700 20800
2020-07-10 08:45 10.15 249 20800 (2015) 54 (2011) 5870 54 67 102 2320 13200 17700 20800
2020-07-10 07:45 10.16 251 20800 (2015) 54 (2011) 5870 54 67 102 2320 13200 17700 20800
2020-07-10 06:45 10.16 251 20800 (2015) 54 (2011) 5870 54 67 102 2320 13200 17700 20800
2020-07-10 05:45 10.17 254 20800 (2015) 54 (2011) 5870 54 67 102 2320 13200 17700 20800
2020-07-10 04:45 10.17 254 20800 (2015) 54 (2011) 5870 54 67 102 2320 13200 17700 20800
2020-07-10 03:45 10.15 249 20800 (2015) 54 (2011) 5870 54 67 102 2320 13200 17700 20800
2020-07-10 02:45 10.08 232 20800 (2015) 54 (2011) 5870 54 67 102 2320 13200 17700 20800
2020-07-10 01:45 9.96 205 20800 (2015) 54 (2011) 5870 54 67 102 2320 13200 17700 20800
2020-07-10 00:45 9.83 180 20800 (2015) 54 (2011) 5870 54 67 102 2320 13200 17700 20800
2020-07-09 23:45 9.73 162 21000 (2019) 50 (2012) 6200 50 97 171 3580 13100 17700 21000
2020-07-09 22:45 9.73 162 21000 (2019) 50 (2012) 6200 50 97 171 3580 13100 17700 21000
2020-07-09 21:45 9.80 175 21000 (2019) 50 (2012) 6200 50 97 171 3580 13100 17700 21000
2020-07-09 20:45 9.87 188 21000 (2019) 50 (2012) 6200 50 97 171 3580 13100 17700 21000
2020-07-09 19:45 1 214 21000 (2019) 50 (2012) 6200 50 97 171 3580 13100 17700 21000
2020-07-09 18:45 10.11 239 21000 (2019) 50 (2012) 6200 50 97 171 3580 13100 17700 21000
2020-07-09 17:45 10.16 251 21000 (2019) 50 (2012) 6200 50 97 171 3580 13100 17700 21000
2020-07-09 16:45 10.19 259 21000 (2019) 50 (2012) 6200 50 97 171 3580 13100 17700 21000
2020-07-09 15:45 10.21 264 21000 (2019) 50 (2012) 6200 50 97 171 3580 13100 17700 21000
2020-07-09 14:45 10.23 269 21000 (2019) 50 (2012) 6200 50 97 171 3580 13100 17700 21000
2020-07-09 13:45 10.24 272 21000 (2019) 50 (2012) 6200 50 97 171 3580 13100 17700 21000
2020-07-09 12:45 10.27 280 21000 (2019) 50 (2012) 6200 50 97 171 3580 13100 17700 21000
2020-07-09 11:45 10.25 274 21000 (2019) 50 (2012) 6200 50 97 171 3580 13100 17700 21000
2020-07-09 10:45 10.29 285 21000 (2019) 50 (2012) 6200 50 97 171 3580 13100 17700 21000
2020-07-09 09:45 10.30 288 21000 (2019) 50 (2012) 6200 50 97 171 3580 13100 17700 21000
2020-07-09 08:45 10.36 304 21000 (2019) 50 (2012) 6200 50 97 171 3580 13100 17700 21000
2020-07-09 07:45 10.34 299 21000 (2019) 50 (2012) 6200 50 97 171 3580 13100 17700 21000
2020-07-09 06:45 10.36 304 21000 (2019) 50 (2012) 6200 50 97 171 3580 13100 17700 21000
2020-07-09 05:45 10.37 307 21000 (2019) 50 (2012) 6200 50 97 171 3580 13100 17700 21000
2020-07-09 04:45 10.39 313 21000 (2019) 50 (2012) 6200 50 97 171 3580 13100 17700 21000
2020-07-09 03:45 10.34 299 21000 (2019) 50 (2012) 6200 50 97 171 3580 13100 17700 21000
2020-07-09 02:45 10.24 272 21000 (2019) 50 (2012) 6200 50 97 171 3580 13100 17700 21000
2020-07-09 01:45 10.12 241 21000 (2019) 50 (2012) 6200 50 97 171 3580 13100 17700 21000
2020-07-09 00:45 10.01 216 21000 (2019) 50 (2012) 6200 50 97 171 3580 13100 17700 21000
2020-07-08 23:45 9.99 211 23200 (2019) 50 (2012) 5800 50 167 256 3930 9470 11400 23200
2020-07-08 22:45 10.05 225 23200 (2019) 50 (2012) 5800 50 167 256 3930 9470 11400 23200
2020-07-08 21:45 10.14 246 23200 (2019) 50 (2012) 5800 50 167 256 3930 9470 11400 23200
2020-07-08 20:45 10.23 269 23200 (2019) 50 (2012) 5800 50 167 256 3930 9470 11400 23200
2020-07-08 19:45 10.28 282 23200 (2019) 50 (2012) 5800 50 167 256 3930 9470 11400 23200
2020-07-08 18:45 10.31 290 23200 (2019) 50 (2012) 5800 50 167 256 3930 9470 11400 23200
2020-07-08 17:45 10.34 299 23200 (2019) 50 (2012) 5800 50 167 256 3930 9470 11400 23200
2020-07-08 16:45 10.37 307 23200 (2019) 50 (2012) 5800 50 167 256 3930 9470 11400 23200
2020-07-08 15:45 10.38 310 23200 (2019) 50 (2012) 5800 50 167 256 3930 9470 11400 23200
2020-07-08 14:45 10.37 307 23200 (2019) 50 (2012) 5800 50 167 256 3930 9470 11400 23200
2020-07-08 13:45 10.41 318 23200 (2019) 50 (2012) 5800 50 167 256 3930 9470 11400 23200
2020-07-08 12:45 10.45 330 23200 (2019) 50 (2012) 5800 50 167 256 3930 9470 11400 23200
2020-07-08 11:45 10.47 336 23200 (2019) 50 (2012) 5800 50 167 256 3930 9470 11400 23200
2020-07-08 10:45 10.50 345 23200 (2019) 50 (2012) 5800 50 167 256 3930 9470 11400 23200
2020-07-08 09:45 10.52 351 23200 (2019) 50 (2012) 5800 50 167 256 3930 9470 11400 23200
2020-07-08 08:45 10.55 361 23200 (2019) 50 (2012) 5800 50 167 256 3930 9470 11400 23200
2020-07-08 07:45 10.57 367 23200 (2019) 50 (2012) 5800 50 167 256 3930 9470 11400 23200
2020-07-08 06:45 10.60 377 23200 (2019) 50 (2012) 5800 50 167 256 3930 9470 11400 23200
2020-07-08 05:45 10.62 383 23200 (2019) 50 (2012) 5800 50 167 256 3930 9470 11400 23200
2020-07-08 04:45 10.59 373 23200 (2019) 50 (2012) 5800 50 167 256 3930 9470 11400 23200
2020-07-08 03:45 10.51 348 23200 (2019) 50 (2012) 5800 50 167 256 3930 9470 11400 23200
2020-07-08 02:45 10.37 307 23200 (2019) 50 (2012) 5800 50 167 256 3930 9470 11400 23200
2020-07-08 01:45 10.22 266 23200 (2019) 50 (2012) 5800 50 167 256 3930 9470 11400 23200
2020-07-08 00:45 10.17 254 23200 (2019) 50 (2012) 5800 50 167 256 3930 9470 11400 23200
2020-07-07 23:45 10.18 256 20300 (2019) 50 (2012) 5650 50 140 237 4090 10200 13200 20300
2020-07-07 22:45 10.25 274 20300 (2019) 50 (2012) 5650 50 140 237 4090 10200 13200 20300
2020-07-07 21:45 10.33 296 20300 (2019) 50 (2012) 5650 50 140 237 4090 10200 13200 20300
2020-07-07 20:45 10.41 318 20300 (2019) 50 (2012) 5650 50 140 237 4090 10200 13200 20300
2020-07-07 19:45 10.53 354 20300 (2019) 50 (2012) 5650 50 140 237 4090 10200 13200 20300
2020-07-07 18:45 10.56 364 20300 (2019) 50 (2012) 5650 50 140 237 4090 10200 13200 20300
2020-07-07 17:45 10.65 393 20300 (2019) 50 (2012) 5650 50 140 237 4090 10200 13200 20300
2020-07-07 16:45 10.68 403 20300 (2019) 50 (2012) 5650 50 140 237 4090 10200 13200 20300
2020-07-07 15:45 10.71 413 20300 (2019) 50 (2012) 5650 50 140 237 4090 10200 13200 20300
2020-07-07 14:45 10.73 420 20300 (2019) 50 (2012) 5650 50 140 237 4090 10200 13200 20300
2020-07-07 13:45 10.76 430 20300 (2019) 50 (2012) 5650 50 140 237 4090 10200 13200 20300
2020-07-07 12:45 10.77 434 20300 (2019) 50 (2012) 5650 50 140 237 4090 10200 13200 20300
2020-07-07 11:45 10.77 434 20300 (2019) 50 (2012) 5650 50 140 237 4090 10200 13200 20300
2020-07-07 10:45 10.82 451 20300 (2019) 50 (2012) 5650 50 140 237 4090 10200 13200 20300
2020-07-07 09:45 10.84 459 20300 (2019) 50 (2012) 5650 50 140 237 4090 10200 13200 20300
2020-07-07 08:45 10.84 459 20300 (2019) 50 (2012) 5650 50 140 237 4090 10200 13200 20300
2020-07-07 07:45 10.84 459 20300 (2019) 50 (2012) 5650 50 140 237 4090 10200 13200 20300
2020-07-07 06:45 10.84 459 20300 (2019) 50 (2012) 5650 50 140 237 4090 10200 13200 20300
2020-07-07 05:45 10.85 462 20300 (2019) 50 (2012) 5650 50 140 237 4090 10200 13200 20300
2020-07-07 04:45 10.85 462 20300 (2019) 50 (2012) 5650 50 140 237 4090 10200 13200 20300
2020-07-07 03:45 10.82 451 20300 (2019) 50 (2012) 5650 50 140 237 4090 10200 13200 20300
2020-07-07 02:45 10.74 423 20300 (2019) 50 (2012) 5650 50 140 237 4090 10200 13200 20300
2020-07-07 01:45 10.61 380 20300 (2019) 50 (2012) 5650 50 140 237 4090 10200 13200 20300
2020-07-07 00:45 10.47 336 20300 (2019) 50 (2012) 5650 50 140 237 4090 10200 13200 20300

A total of 729 rows are displayed for years 2011 through 2019.